Temperature
21 21 21 21 20 20 20 20 20 20 20 20 20 20 20 20 20 19 19 19 19 19 19 19 19 19 19 19 19 19 19 19 19 19 19 19 18 18 18 18 18 18 18
21 21 21 21 21 20 20 20 20 20 20 20 20 20 19 19 19 19 19 19 19 19 19 19 19 19 19 19 19 19 19 19 19 19 19 19 18 18 18 18 18 18 18
21 21 21 21 21 20 20 20 20 20 20 20 20 19 19 19 19 19 19 19 19 19 19 19 19 19 19 19 19 19 19 19 19 18 18 18 18 18 18 18 18 18 18
21 21 21 21 21 20 20 20 20 20 20 20 20 19 19 19 19 19 19 19 19 19 19 19 19 19 19 19 19 18 18 18 18 18 18 18 18 18 18 18 18 18 18
21 21 21 21 21 20 20 20 20 20 20 20 19 19 19 19 19 19 19 19 19 19 19 19 19 19 19 19 19 18 18 18 18 18 18 18 18 18 18 18 18 18 18
21 21 21 21 21 20 20 20 20 20 20 20 19 19 19 19 19 19 19 19 19 19 19 19 19 19 19 19 19 18 18 18 18 18 18 18 18 18 18 18 18 18 18
22 21 21 21 21 20 20 20 20 20 20 20 19 19 19 19 19 19 19 19 19 19 19 19 19 19 19 19 19 19 19 18 18 18 18 18 18 18 18 18 18 18 18
22 22 21 21 21 21 20 20 20 20 20 20 19 19 19 19 19 19 19 19 19 19 19 19 19 19 19 19 19 19 19 19 18 18 18 18 18 18 18 18 18 18 18
22 22 21 21 21 21 21 20 20 20 20 20 20 19 19 19 19 19 19 19 19 19 19 19 19 19 19 19 19 19 19 19 18 18 18 18 18 18 18 18 18 18 18
22 22 21 21 21 21 21 20 20 20 20 20 20 19 19 19 19 19 19 19 19 19 19 19 19 19 19 19 19 19 19 19 18 18 18 18 18 18 18 18 18 18 18
22 22 22 21 21 21 21 21 20 20 20 20 20 19 19 19 19 19 19 19 19 19 19 19 19 19 19 19 19 19 19 19 18 18 18 18 18 18 18 18 18 18 18
23 22 22 22 21 21 20 20 20 20 20 20 19 19 19 19 19 19 19 19 19 19 19 19 19 19 19 19 19 19 19 19 18 18 18 18 18 18 18 18 18 18 18
23 23 22 22 22 21 21 20 20 20 20 19 19 19 19 19 19 19 19 19 19 19 19 19 19 19 19 19 19 19 19 19 19 19 19 18 18 18 18 18 18 18 18
23 22 22 22 22 21 21 20 20 20 20 20 20 19 19 19 19 19 19 19 19 19 19 18 19 18 18 19 19 19 19 19 19 19 19 18 18 18 18 18 18 18 18
23 22 22 22 21 21 21 20 20 20 20 20 20 20 19 19 19 19 19 19 19 19 19 19 19 18 18 19 19 19 19 19 19 19 18 18 18 18 18 18 18 18 18
23 22 22 21 21 21 20 20 20 20 20 20 20 20 19 19 19 19 19 19 19 19 19 19 19 19 19 19 19 19 19 19 18 18 18 18 18 18 18 18 18 18 18
22 22 22 21 21 21 20 20 20 20 20 20 20 20 19 19 19 19 19 19 19 19 19 19 19 19 19 19 19 18 18 18 18 18 18 18 18 18 18 18 18 18 18
22 22 21 21 21 21 20 20 20 20 20 20 20 20 19 19 19 19 19 19 19 19 19 19 19 19 19 19 19 19 18 18 18 18 18 18 18 18 18 18 18 18 18
22 22 21 21 21 20 20 20 20 20 20 20 19 19 19 19 19 19 19 19 19 19 19 19 19 18 19 19 19 19 19 18 18 18 18 18 18 18 18 18 18 18 18
22 21 21 21 20 20 20 20 20 20 19 19 19 19 19 19 19 19 19 19 19 19 19 19 19 19 19 19 19 19 19 19 19 18 18 18 18 18 18 18 18 18 18
22 21 21 21 20 20 20 20 20 19 19 19 19 19 19 19 19 19 19 19 19 19 19 19 19 19 19 19 19 19 19 19 19 19 19 18 18 18 18 18 18 18 17
22 21 21 21 20 20 20 20 20 20 19 19 19 19 19 19 19 19 19 19 19 19 19 19 19 19 19 19 19 18 18 19 19 19 19 18 18 18 18 18 17 17 17
22 22 21 21 20 20 20 20 20 19 19 19 19 19 19 19 19 19 19 19 19 19 19 19 19 19 18 19 19 19 19 18 18 18 19 18 18 18 18 17 17 17 17
22 22 21 21 20 20 20 20 20 20 19 19 19 19 19 19 19 19 19 19 19 19 19 19 18 18 18 18 19 19 19 19 18 18 18 18 18 18 18 18 17 17 17
23 22 21 21 21 20 20 20 20 20 20 20 19 19 19 19 19 19 19 19 19 19 19 19 18 18 18 18 18 18 18 19 19 18 18 18 18 18 18 18 17 17 17
23 22 21 21 21 20 20 20 20 20 20 19 19 19 19 19 19 19 19 19 19 19 19 19 19 18 18 18 18 18 18 18 18 18 18 18 18 18 18 17 17 17 17
Wind_Speed
11 12 13 13 13 13 13 13 13 13 12 12 11 11 11 11 12 11 11 11 12 12 11 10 10 9 9 9 8 8 8 9 9 9 8 9 8 7 7 8 7 8 10
14 13 14 14 14 14 13 13 13 12 12 11 11 11 11 11 11 11 10 10 11 11 10 9 9 8 8 8 7 7 8 8 9 9 9 8 8 7 7 6 6 9 10
14 14 14 14 14 14 13 12 12 12 11 11 11 10 11 11 10 10 10 10 10 10 9 9 8 8 8 8 7 7 7 8 9 9 10 8 8 7 7 8 9 10 10
15 14 15 15 15 14 13 12 12 11 11 11 11 11 11 10 10 10 9 9 9 9 8 8 7 7 7 7 6 6 6 7 8 9 8 8 8 9 8 8 9 9 9
15 16 17 16 15 14 13 12 11 11 12 12 11 11 11 10 10 9 9 9 8 8 8 7 7 6 6 6 6 6 6 6 7 7 5 7 8 10 9 9 9 9 8
16 17 17 17 15 14 13 12 11 12 12 12 11 11 10 10 9 9 9 8 8 7 7 7 6 6 6 6 5 5 6 6 7 7 5 7 10 12 11 9 10 9 9
16 16 18 17 16 14 13 12 12 13 13 12 11 11 10 9 9 9 9 8 7 7 7 6 6 5 5 5 5 5 6 7 7 6 5 6 10 13 11 10 10 10 9
16 16 17 17 16 15 14 12 12 12 12 11 11 10 10 9 8 8 8 7 7 7 6 6 5 4 4 4 5 5 6 7 6 5 7 8 11 12 11 10 11 10 10
15 15 14 15 15 15 14 13 12 11 11 10 10 9 9 9 8 8 8 7 7 6 6 5 4 4 4 5 5 6 7 7 6 3 6 8 12 12 11 11 12 11 10
12 13 13 13 14 13 13 13 12 12 11 10 9 9 9 8 7 8 8 7 7 7 6 5 5 5 5 6 6 7 7 7 4 2 5 9 13 12 11 11 11 11 11
9 9 10 11 11 12 12 13 12 11 10 10 9 9 8 6 6 7 8 8 7 7 6 6 6 6 6 6 7 8 7 6 4 4 5 10 12 11 11 11 11 10 10
10 9 8 8 9 9 9 10 9 9 9 8 8 8 6 5 5 6 9 9 7 6 5 6 7 7 7 6 7 8 5 6 4 5 7 13 13 12 11 11 10 10 10
10 8 8 7 7 7 6 6 4 5 6 7 7 6 5 4 4 5 5 6 6 5 5 5 7 6 6 4 4 5 6 4 3 4 9 13 13 13 12 12 11 11 10
10 9 8 8 6 6 5 4 4 3 4 4 6 5 4 2 2 2 2 3 3 3 3 3 3 4 3 2 2 2 2 2 3 4 8 12 11 11 11 11 11 11 9
10 9 8 8 7 5 4 2 4 3 3 5 6 4 4 3 2 2 1 1 1 1 1 1 1 1 2 1 2 2 1 1 3 5 6 11 11 10 10 10 10 10 10
9 9 9 8 8 5 4 2 2 3 3 4 5 5 4 3 3 2 1 1 1 1 2 2 1 1 1 2 2 2 1 1 2 5 6 9 10 10 10 10 10 10 10
9 8 8 8 8 5 4 3 3 3 4 3 5 6 4 3 3 1 1 1 1 2 2 2 1 1 2 2 2 2 1 1 2 3 4 6 7 9 10 11 11 11 10
9 8 6 7 8 6 4 2 2 2 3 3 4 5 4 4 3 1 1 2 2 1 1 1 0 1 1 0 1 2 2 2 2 3 4 4 5 6 8 11 11 11 10
9 8 7 6 7 6 5 3 2 2 2 2 3 4 4 3 3 2 1 1 2 1 1 1 1 0 1 1 2 3 3 3 3 4 4 5 5 6 6 9 11 10 10
10 8 7 7 6 6 5 3 2 2 3 2 2 3 4 3 2 1 1 1 1 1 0 1 1 1 1 1 1 1 2 2 3 3 4 4 5 6 6 7 8 9 10
11 9 8 7 7 5 4 4 3 3 3 3 3 4 4 3 2 1 0 0 0 1 0 0 0 1 1 1 0 0 2 2 3 3 3 3 3 5 5 6 7 7 6
11 10 9 8 7 6 5 3 3 4 3 3 2 3 3 3 2 1 1 0 0 1 1 0 0 1 1 0 0 1 0 0 0 2 3 3 3 4 4 4 5 6 6
12 11 9 8 7 7 7 5 4 3 2 2 3 3 2 2 2 1 1 1 0 1 1 1 1 1 1 1 1 1 1 0 1 0 1 2 2 2 2 2 3 4 4
13 12 10 9 8 7 7 6 6 5 4 3 3 3 3 3 2 2 1 1 1 0 0 1 0 1 1 2 1 1 1 0 1 0 1 1 2 2 2 1 2 3 3
13 13 11 10 8 7 6 6 5 4 4 3 3 4 3 3 3 2 2 2 1 0 0 1 1 1 1 2 2 1 1 1 2 1 1 0 1 1 1 1 2 2 3
12 12 12 11 9 8 8 7 5 4 4 4 4 4 3 3 3 3 3 2 1 0 0 0 1 1 1 2 2 2 2 2 1 1 1 1 1 1 1 2 1 2 3
Wind_Direction
111 118 121 118 116 115 113 113 112 111 110 111 112 111 111 111 112 112 115 116 119 121 121 120 124 125 122 119 122 128 132 135 135 134 139 142 143 145 141 143 146 130 127
118 121 121 120 119 118 116 116 117 116 115 115 117 119 118 118 119 119 120 121 122 124 126 125 126 125 124 127 132 138 145 148 148 152 154 150 153 152 144 140 133 126 132
119 122 120 119 120 119 118 118 118 117 117 117 118 120 121 122 123 124 125 125 127 130 131 131 131 129 128 129 133 145 155 161 167 175 175 165 156 152 140 131 129 134 137
119 120 119 120 120 120 119 118 119 121 121 119 117 119 121 122 123 125 126 128 131 133 136 136 135 135 137 141 147 159 169 177 184 193 195 173 157 153 151 145 142 142 143
115 117 120 122 121 121 119 117 118 124 127 124 120 119 122 123 125 126 125 128 130 132 135 136 140 142 146 154 163 178 190 201 208 216 208 158 148 155 155 155 151 150 150
114 117 123 123 124 124 120 117 113 119 126 124 121 121 122 123 125 127 129 131 133 134 135 137 143 148 158 169 183 197 211 225 232 216 190 152 148 158 161 159 155 157 160
117 119 125 126 128 126 123 120 117 116 120 121 120 119 123 124 123 127 130 133 134 135 135 139 145 150 163 182 205 217 230 240 230 209 168 156 153 161 164 162 161 164 168
118 121 127 130 131 130 128 125 123 122 122 121 121 122 125 128 128 133 137 139 137 136 136 141 148 156 178 198 217 234 245 254 235 206 172 155 154 162 168 170 169 171 176
122 125 132 138 139 136 133 132 129 126 125 125 127 128 127 130 136 141 145 146 143 143 142 147 158 174 192 215 229 242 250 256 263 222 160 149 159 166 174 176 175 177 182
121 129 138 143 144 146 143 143 140 137 137 139 139 139 138 143 149 151 151 152 151 151 155 163 181 190 203 220 231 243 254 264 250 193 150 149 157 165 172 174 177 182 187
122 128 134 136 141 144 144 145 151 147 148 149 151 154 159 164 159 157 145 149 158 161 167 179 196 203 212 222 232 240 245 241 202 167 141 144 154 163 169 172 179 182 188
136 128 125 127 131 135 130 138 153 153 155 162 156 161 175 160 142 132 137 152 160 166 176 191 204 211 220 219 217 222 227 226 196 164 149 153 157 162 166 171 175 183 189
134 125 124 120 120 118 117 134 144 140 147 159 151 160 140 124 128 126 141 150 165 175 190 191 203 211 216 208 194 198 208 209 174 145 144 155 159 165 171 176 181 187 191
129 127 119 113 106 103 118 130 136 139 152 142 139 142 125 127 117 119 124 138 160 171 180 181 197 197 209 203 194 199 205 178 131 119 141 154 163 168 173 179 185 189 192
128 128 118 114 104 94 93 124 129 122 129 129 129 126 121 123 114 102 87 107 144 153 157 181 209 181 191 211 215 185 214 185 133 127 137 156 166 171 176 182 185 189 197
128 126 120 119 114 117 123 120 114 124 116 121 123 118 118 117 110 108 105 121 212 175 170 204 221 202 197 204 193 178 198 180 130 141 146 155 162 168 177 186 188 191 197
129 126 127 132 128 132 135 145 126 123 120 115 117 119 120 114 115 130 151 181 193 198 195 202 232 230 218 212 179 168 169 157 139 146 158 161 161 169 177 184 190 193 197
133 132 134 137 135 136 132 133 120 110 115 112 120 125 121 112 127 149 165 170 187 198 209 188 207 266 266 231 173 168 155 169 164 169 163 166 170 171 178 185 186 188 192
137 135 138 134 136 140 142 140 118 99 95 113 118 125 129 129 145 159 155 183 183 198 212 197 146 204 269 244 191 169 166 180 188 185 173 165 165 169 172 177 186 191 196
141 141 146 145 143 147 145 138 130 124 136 134 123 126 121 131 134 166 178 215 192 168 100 44 43 338 317 302 279 155 173 183 184 186 187 172 161 168 175 172 176 189 202
146 149 154 155 154 152 154 162 156 153 156 153 153 135 134 140 143 151 317 107 251 134 172 195 89 314 279 214 295 218 205 192 187 180 179 174 155 161 159 165 173 178 184
155 156 161 165 162 159 160 164 159 158 162 163 144 127 144 154 163 173 198 221 287 110 77 15 343 290 274 188 248 270 239 165 220 178 156 161 161 154 158 173 177 166 171
161 164 165 161 166 167 165 166 159 151 162 148 144 141 161 160 160 254 150 214 286 168 126 190 232 256 286 295 275 293 308 63 338 206 150 125 132 143 157 167 159 157 166
166 163 158 160 165 168 171 173 173 166 166 169 160 157 174 173 179 192 151 179 277 37 77 265 120 271 281 296 300 286 243 143 202 216 342 108 131 139 154 169 127 140 148
166 162 159 158 163 166 172 176 182 170 171 156 154 162 177 175 175 175 159 180 186 145 68 355 20 351 331 311 302 294 279 247 224 195 229 283 78 120 140 136 126 124 135
165 162 159 159 164 169 175 179 177 179 177 158 169 175 191 185 170 179 166 170 178 197 131 251 304 307 318 313 308 306 297 294 271 210 211 219 196 222 158 144 139 127 141
Height
1492 1492 1493 1495 1496 1497 1499 1500 1501 1503 1505 1507 1509 1510 1512 1514 1515 1517 1519 1521 1523 1524 1526 1528 1529 1531 1532 1534 1535 1537 1538 1540 1541 1543 1544 1545 1547 1548 1549 1551 1552 1553 1554
1493 1494 1494 1495 1497 1498 1500 1501 1503 1504 1506 1508 1509 1511 1513 1515 1517 1518 1520 1522 1524 1525 1527 1529 1530 1531 1533 1534 1536 1537 1539 1540 1541 1543 1544 1545 1547 1548 1549 1551 1552 1553 1554
1493 1495 1496 1496 1498 1499 1501 1502 1503 1505 1506 1508 1510 1512 1514 1516 1517 1519 1521 1523 1525 1526 1528 1529 1531 1532 1533 1535 1536 1537 1539 1540 1542 1543 1544 1545 1547 1548 1549 1551 1552 1553 1555
1495 1496 1497 1498 1499 1501 1502 1503 1504 1505 1507 1509 1511 1513 1515 1517 1518 1520 1522 1524 1526 1527 1528 1530 1531 1533 1534 1535 1536 1538 1539 1540 1542 1543 1544 1545 1547 1548 1549 1551 1552 1553 1555
1497 1497 1499 1500 1501 1502 1503 1504 1503 1502 1506 1509 1512 1514 1516 1518 1519 1521 1523 1524 1526 1528 1529 1530 1532 1533 1535 1536 1537 1538 1539 1540 1542 1543 1544 1545 1546 1548 1549 1551 1552 1553 1555
1498 1499 1500 1502 1503 1504 1505 1505 1503 1501 1505 1510 1513 1515 1517 1519 1520 1522 1524 1525 1527 1528 1530 1531 1532 1534 1535 1536 1537 1538 1539 1540 1542 1543 1544 1545 1546 1547 1549 1550 1552 1553 1554
1500 1501 1502 1503 1505 1506 1507 1507 1507 1506 1508 1512 1515 1516 1518 1520 1522 1523 1525 1526 1528 1529 1530 1531 1533 1534 1535 1536 1537 1538 1539 1540 1542 1543 1544 1544 1545 1547 1548 1550 1551 1553 1554
1502 1503 1504 1506 1507 1508 1509 1510 1510 1511 1513 1515 1516 1518 1520 1521 1523 1524 1526 1527 1529 1530 1531 1532 1533 1534 1535 1536 1537 1538 1539 1540 1541 1542 1543 1544 1545 1546 1548 1549 1550 1552 1553
1504 1505 1506 1508 1509 1510 1512 1513 1513 1514 1515 1517 1519 1520 1521 1523 1524 1526 1527 1528 1529 1531 1531 1532 1533 1534 1535 1536 1537 1538 1539 1540 1541 1542 1542 1543 1544 1545 1547 1548 1549 1551 1553
1506 1508 1509 1510 1511 1512 1513 1515 1516 1517 1518 1519 1520 1522 1523 1524 1526 1527 1528 1529 1530 1531 1532 1533 1533 1534 1535 1536 1537 1538 1539 1540 1541 1541 1542 1543 1544 1545 1546 1547 1548 1550 1552
1508 1510 1511 1513 1514 1515 1516 1517 1518 1519 1520 1521 1522 1523 1525 1526 1527 1528 1529 1530 1531 1531 1532 1533 1534 1535 1535 1536 1537 1538 1539 1539 1540 1540 1541 1543 1543 1544 1545 1546 1548 1549 1551
1509 1511 1513 1515 1516 1517 1519 1519 1520 1521 1522 1523 1524 1525 1526 1527 1529 1530 1530 1531 1532 1532 1533 1534 1534 1535 1535 1536 1537 1538 1539 1539 1540 1540 1541 1542 1543 1544 1545 1546 1548 1549 1550
1510 1512 1514 1516 1517 1519 1520 1521 1522 1523 1523 1524 1525 1526 1528 1529 1530 1531 1531 1532 1532 1533 1533 1534 1534 1535 1535 1536 1537 1538 1538 1539 1539 1540 1540 1541 1543 1544 1545 1546 1547 1548 1549
1511 1513 1515 1516 1518 1519 1520 1522 1523 1523 1524 1525 1526 1527 1529 1530 1531 1531 1532 1532 1533 1533 1534 1534 1534 1535 1536 1537 1537 1538 1538 1539 1539 1540 1540 1541 1542 1543 1544 1545 1546 1547 1548
1511 1513 1515 1516 1518 1519 1521 1522 1524 1524 1525 1526 1527 1528 1529 1530 1531 1532 1533 1533 1533 1534 1534 1534 1534 1535 1535 1536 1536 1537 1537 1538 1539 1539 1540 1540 1541 1542 1543 1544 1545 1545 1546
1511 1513 1515 1517 1518 1519 1521 1523 1524 1525 1526 1527 1528 1529 1530 1531 1531 1532 1533 1533 1533 1534 1534 1534 1534 1534 1535 1535 1535 1536 1536 1537 1538 1538 1539 1539 1540 1541 1541 1542 1543 1544 1545
1511 1513 1515 1517 1518 1520 1522 1524 1525 1526 1527 1528 1528 1529 1530 1531 1532 1532 1532 1533 1533 1534 1534 1534 1534 1534 1534 1534 1534 1534 1535 1536 1536 1537 1538 1539 1539 1540 1540 1540 1541 1542 1543
1511 1513 1515 1517 1518 1520 1522 1523 1525 1526 1527 1528 1528 1529 1530 1531 1531 1532 1532 1533 1533 1533 1534 1534 1534 1534 1533 1532 1532 1533 1534 1535 1536 1537 1537 1537 1538 1538 1539 1540 1540 1541 1542
1510 1513 1515 1517 1518 1520 1521 1523 1525 1526 1527 1528 1529 1529 1530 1531 1531 1532 1532 1533 1533 1533 1534 1534 1533 1533 1533 1532 1532 1533 1533 1534 1535 1536 1536 1537 1537 1537 1538 1538 1539 1539 1540
1510 1512 1514 1516 1517 1519 1521 1522 1524 1526 1527 1528 1529 1529 1530 1531 1531 1532 1532 1533 1533 1533 1533 1533 1533 1533 1533 1532 1533 1533 1533 1534 1535 1536 1536 1536 1536 1536 1537 1537 1538 1538 1539
1509 1511 1513 1515 1516 1519 1520 1522 1523 1525 1527 1528 1528 1529 1530 1530 1531 1531 1532 1532 1532 1533 1533 1533 1533 1533 1533 1533 1533 1533 1534 1534 1534 1535 1535 1536 1536 1536 1536 1536 1536 1537 1537
1507 1509 1511 1513 1515 1517 1519 1521 1523 1524 1526 1527 1528 1528 1529 1530 1530 1531 1531 1531 1532 1532 1532 1532 1532 1532 1533 1533 1534 1533 1534 1535 1534 1535 1535 1535 1535 1535 1535 1535 1536 1536 1536
1506 1508 1510 1512 1514 1516 1518 1520 1522 1524 1525 1527 1527 1528 1528 1529 1530 1530 1530 1531 1531 1531 1531 1531 1531 1532 1532 1533 1533 1534 1534 1534 1534 1535 1535 1535 1535 1535 1535 1535 1535 1535 1535
1504 1506 1508 1510 1513 1515 1517 1519 1521 1522 1524 1525 1526 1527 1528 1528 1529 1529 1530 1530 1530 1530 1531 1531 1531 1531 1532 1532 1533 1533 1533 1533 1534 1534 1535 1535 1534 1534 1534 1534 1534 1534 1534
1502 1504 1506 1508 1511 1513 1515 1518 1520 1521 1523 1524 1525 1526 1527 1528 1528 1528 1529 1529 1529 1530 1530 1530 1530 1530 1530 1531 1531 1532 1532 1533 1533 1533 1533 1533 1534 1534 1533 1533 1532 1532 1532
1500 1502 1504 1507 1509 1512 1514 1516 1518 1520 1522 1523 1524 1526 1527 1527 1527 1527 1528 1528 1528 1528 1529 1529 1529 1529 1529 1530 1530 1531 1531 1531 1531 1532 1531 1531 1532 1532 1532 1532 1531 1530 1530